Regional Weather Roundup
Issued by NWS

Home | Current Version | Previous Version | Graphics & Text | Print | Product List | Glossary On
Versions: 1 2 3 4 5 6 7 8 9 10 11 12 13 14 15 16 17 18 19 20 21 22 23 24 25 26 27
000
ASUS45 KCYS 230510
RWRWY

WYOMING REGIONAL WEATHER ROUNDUP
NATIONAL WEATHER SERVICE CHEYENNE WY
1000 PM MST WED NOV 22 2017

NOTE:  "FAIR" INDICATES FEW OR NO CLOUDS BELOW 12,000 FEET
WITH NO SIGNIFICANT WEATHER AND/OR OBSTRUCTIONS TO VISIBILITY.

WYZ001-230600-
YELLOWSTONE NATIONAL PARK

CITY           SKY/WX    TMP DP  RH WIND       PRES   REMARKS
LK YELLOWSTONE   N/A     37  36  96 CALM      30.41F
W YELLOWSTONE  NOT AVBL

$$
WYZ002>013-054>058-071-098>099-230600-
NORTHERN WYOMING

CITY           SKY/WX    TMP DP  RH WIND       PRES   REMARKS
JACKSON        CLOUDY    38  36  92 S5        30.39R WCI  34
CODY           FAIR      57  38  48 W18G29    30.22S
GREYBULL       FAIR      36  33  89 SE3       30.22R
WORLAND        FAIR      33  32  96 E5        30.22F WCI  29
SHERIDAN       FAIR      45  36  70 CALM      30.11S
BUFFALO        FAIR      47  31  53 MISG      30.16F
GILLETTE       FAIR      43  36  76 VRB3      30.13F
HULETT         FAIR      50  37  62 S7        30.12F
NEWCASTLE      FAIR      41  34  75 N10       30.15S

$$
WYZ014>020-022>026-101>103-230600-
CENTRAL WYOMING

CITY           SKY/WX    TMP DP  RH WIND       PRES   REMARKS
BIG PINEY      FAIR      31  30  96 N9        30.42S WCI  23
PINEDALE       FOG       30  30 100 CALM      30.43R VSB 1/4
DUBOIS         FAIR      41  34  75 NW15      30.36S
LANDER         FAIR      45  35  68 CALM      30.26S
RIVERTON       FAIR      43  36  76 W10       30.27S
CASPER         FAIR      43  36  76 SW9       30.25S
DOUGLAS        FAIR      46  39  76 NW9       30.22S

$$
WYZ021-027>030-104>119-230600-
SOUTHERN WYOMING

CITY           SKY/WX    TMP DP  RH WIND       PRES   REMARKS
EVANSTON       FAIR      42  37  82 SW9       30.46S
KEMMERER       FAIR      39  36  87 W5        30.46S
FORT BRIDGER   FAIR      47  38  70 W13G18    30.47S
ROCK SPRINGS   FAIR      45  37  73 SW17      30.40S
DIXON          FAIR      36  33  90 CALM      30.44S
RAWLINS        FAIR      44  38  79 W21G29    30.35F
SARATOGA       FAIR      45  36  70 S5G17     30.40F
LARAMIE        FAIR      41  36  82 W12       30.35F
CHEYENNE       FAIR      48  38  68 NW7       30.28S
TORRINGTON     FAIR      46  40  79 W6        30.18S
PINE BLUFFS    FAIR      52  37  58 MISG      30.22S

$$




USA.gov is the U.S. government's official web portal to all federal, state and local government web resources and services.